CST,Max TemperatureF,Mean TemperatureF,Min TemperatureF,Max Dew PointF,MeanDew PointF,Min DewpointF,Max Humidity, Mean Humidity, Min Humidity, Max Sea Level PressureIn, Mean Sea Level PressureIn, Min Sea Level PressureIn, Max VisibilityMiles, Mean VisibilityMiles, Min VisibilityMiles, Max Wind SpeedMPH, Mean Wind SpeedMPH, Max Gust SpeedMPH,PrecipitationIn, CloudCover, Events, WindDirDegrees
2013-1-1,-16,-34,-43,-24,-44,-49,74,68,48,30.13,30.02,29.78,15,14,5,6,1,,0.00,3,Snow,270
2013-1-2,-27,-34,-42,-27,-37,-44,69,62,36,29.76,29.68,29.65,15,15,15,10,6,,0.00,2,Snow,135
2013-1-3,-33,-36,-40,-40,-45,-48,74,65,45,29.91,29.87,29.79,15,15,15,4,1,,0.00,0,Snow,118
2013-1-4,-16,-28,-41,-24,-32,-44,70,64,48,29.84,29.63,29.44,15,10,3,7,1,,0.00,6,Snow,127
2013-1-5,-27,-32,-36,-35,-40,-45,68,62,44,29.45,29.35,29.28,15,13,5,10,3,,0.00,0,Snow,118
2013-1-6,-30,-34,-38,-35,-40,-45,69,63,47,29.73,29.65,29.52,15,15,15,10,5,,0.00,0,Snow,116
2013-1-7,-34,-38,-41,-44,-46,-47,74,66,49,29.81,29.78,29.72,15,15,15,2,1,,0.00,0,Snow,102
2013-1-8,-29,-34,-40,-38,-42,-47,68,63,38,29.78,29.74,29.71,15,15,15,2,0,,0.00,1,Snow,150
2013-1-9,-38,-40,-43,-45,-47,-49,82,70,52,29.78,29.74,29.65,15,15,6,2,0,,0.00,0,Snow,249
2013-1-10,-15,-30,-44,-24,-30,-49,83,66,49,29.75,29.54,29.41,15,12,4,7,1,,0.02,4,Snow,252
2013-1-11,-21,-28,-34,-24,-35,-42,75,61,39,30.10,29.99,29.82,15,14,6,4,1,,0.00,2,Snow,215
2013-1-12,-24,-30,-37,-35,-40,-44,69,62,43,30.42,30.25,30.11,15,15,15,5,1,,0.00,2,Snow,115
2013-1-13,-33,-40,-47,-36,-47,-51,91,73,48,30.54,30.50,30.43,15,15,15,4,1,,0.00,0,Snow,277
2013-1-14,-40,-44,-49,-47,-49,-51,90,74,55,30.37,30.22,30.14,15,15,10,2,0,,0.00,0,Snow,130
2013-1-15,-45,-48,-50,-49,-50,-52,90,78,68,30.12,30.08,30.02,15,15,10,9,1,,0.00,0,Snow,90
2013-1-16,-43,-48,-52,-49,-51,-53,90,81,74,29.99,29.87,29.72,15,15,10,4,0,,0.00,0,Snow,154
2013-1-17,-32,-42,-51,-40,-45,-48,82,66,50,29.75,29.64,29.57,15,15,15,7,1,,0.00,2,Snow,121
2013-1-18,-14,-36,-42,-22,-45,-48,83,67,47,29.89,29.84,29.67,15,14,3,7,1,,0.00,0,Snow,283
2013-1-19,-9,-25,-41,-18,-21,-24,77,67,52,29.65,29.49,29.39,15,10,3,13,6,,0.00,3,Snow,277
2013-1-20,-14,-20,-25,-21,-28,-35,76,61,43,30.22,29.97,29.70,15,15,15,5,1,,0.00,4,Snow,226
2013-1-21,-7,-16,-24,-22,-25,-27,70,60,40,30.37,30.31,30.25,15,13,5,12,5,,0.00,0,Snow,318
2013-1-22,-11,-16,-20,-24,-26,-29,70,58,38,30.40,30.37,30.30,15,15,10,12,5,,0.00,0,Snow,285
2013-1-23,-10,-18,-29,-26,-30,-38,64,54,36,30.29,30.19,30.10,15,15,8,13,9,17,0.00,0,Snow,295
2013-1-24,-32,-34,-38,-38,-43,-45,68,61,42,30.09,30.06,30.04,15,15,15,5,1,,0.00,0,Snow,110
2013-1-25,-36,-38,-41,-40,-45,-47,100,66,48,30.02,29.98,29.92,15,15,15,2,0,,0.00,0,Snow,100
2013-1-26,-36,-38,-40,-45,-46,-47,74,65,47,29.90,29.82,29.75,15,15,15,2,0,,0.00,0,Snow,75
2013-1-27,-41,-42,-44,-47,-48,-49,74,71,53,29.80,29.75,29.73,15,14,10,4,1,,0.00,0,Snow,122
2013-1-28,-37,-40,-44,-45,-47,-48,74,68,50,29.93,29.86,29.81,15,15,15,0,0,,0.00,2,Snow,-1
2013-1-29,-37,-40,-44,-45,-48,-49,74,69,46,29.92,29.87,29.82,15,13,3,4,0,,0.00,1,Snow,210
2013-1-30,-42,-44,-46,-48,-50,-51,82,72,51,29.88,29.85,29.83,15,15,15,0,0,,0.00,0,Snow,-1
2013-1-31,-39,-43,-47,-47,-49,-51,82,71,57,29.97,29.91,29.88,15,15,15,2,0,,0.01,1,Snow,140